Weather History for Marfa, TX

Change the Weather History Date:

Monday, May 19, 2014

  Actual Average Record
Temperature  
Mean Temperature 72 °F -  
Max Temperature 93 °F 82 °F 95 °F (2003)
Min Temperature 51 °F 51 °F 42 °F (2008)
Cooling Degree Days 7    
Growing Degree Days 22 (Base 50)    
Moisture  
Dew Point 37 °F    
Average Humidity 32    
Maximum Humidity 67    
Minimum Humidity 10    
Precipitation  
Precipitation 0.00 in - - ()
Sea Level Pressure  
Sea Level Pressure 30.06 in    
Wind  
Wind Speed 6 mph (SSW)    
Max Wind Speed 20 mph    
Max Gust Speed 31 mph    
Visibility 10 miles    
Events      
Averages and records for this station are not official NWS values.
T = Trace of Precipitation, MM = Missing Value Source: NWS Daily Summary

Daily Weather History Graph

Daily Weather History Graph

Search for Another Location

Airport:

Trip Planner

Search our weather history database for the weather conditions in past years. The results will help you decide how hot, cold, wet, or windy it might be!

Date:

Astronomy

May. 19, 2014 Rise Set
Actual Time 6:59 AM CDT 8:45 PM CDT
Civil Twilight 6:33 AM CDT 9:12 PM CDT
Nautical Twilight 6:01 AM CDT 9:44 PM CDT
Astronomical Twilight 5:27 AM CDT 10:18 PM CDT
Moon 12:40 AM CDT (5/19) 11:53 AM CDT (5/19)
Length of Visible Light 14h 39m
Length of Day
13h 46m
Waning Gibbous, 71% of the Moon is Illuminated
May 19
Waning Gibbous
May 21
Last Quarter
May 28
New
Jun 5
First Quarter
Jun 12
Full

Hourly Weather History & Observations

Time (CDT) Temp. Dew Point Humidity Pressure Visibility Wind Dir Wind Speed Gust Speed Precip Events Conditions
12:15 AM 69.8 °F 48.2 °F 46% 30.05 in 10.0 mi SSW 4.6 mph - N/A   Clear
12:35 AM 68.0 °F 48.2 °F 49% 30.05 in 10.0 mi Calm Calm - N/A   Clear
12:55 AM 68.0 °F 48.2 °F 49% 30.05 in 10.0 mi South 6.9 mph - N/A   Clear
1:15 AM 66.2 °F 48.2 °F 52% 30.05 in 10.0 mi SSW 5.8 mph - N/A   Clear
1:35 AM 64.4 °F 46.4 °F 52% 30.05 in 10.0 mi WSW 3.5 mph - N/A   Clear
1:55 AM 64.4 °F 46.4 °F 52% 30.05 in 10.0 mi Calm Calm - N/A   Clear
2:15 AM 60.8 °F 44.6 °F 55% 30.05 in 10.0 mi Calm Calm - N/A   Clear
2:35 AM 59.0 °F 42.8 °F 55% 30.06 in 10.0 mi NNW 3.5 mph - N/A   Clear
2:55 AM 59.0 °F 44.6 °F 59% 30.06 in 10.0 mi Calm Calm - N/A   Clear
3:15 AM 57.2 °F 42.8 °F 59% 30.06 in 10.0 mi Calm Calm - N/A   Clear
3:35 AM 55.4 °F 42.8 °F 63% 30.06 in 10.0 mi Calm Calm - N/A   Clear
3:55 AM 55.4 °F 41.0 °F 58% 30.07 in 10.0 mi NW 8.1 mph - N/A   Clear
4:15 AM 57.2 °F 42.8 °F 59% 30.07 in 10.0 mi North 5.8 mph - N/A   Clear
4:35 AM 55.4 °F 42.8 °F 63% 30.06 in 10.0 mi NNE 5.8 mph - N/A   Clear
4:55 AM 53.6 °F 39.2 °F 58% 30.06 in 10.0 mi NNE 6.9 mph - N/A   Clear
5:15 AM 53.6 °F 39.2 °F 58% 30.06 in 10.0 mi NNE 5.8 mph - N/A   Clear
5:35 AM 53.6 °F 41.0 °F 62% 30.07 in 10.0 mi NNE 8.1 mph - N/A   Clear
5:55 AM 53.6 °F 39.2 °F 58% 30.07 in 10.0 mi North 5.8 mph - N/A   Clear
6:15 AM 51.8 °F 39.2 °F 62% 30.07 in 10.0 mi North 6.9 mph - N/A   Clear
6:35 AM 53.6 °F 42.8 °F 67% 30.07 in 10.0 mi North 6.9 mph - N/A   Clear
6:55 AM 53.6 °F 41.0 °F 62% 30.07 in 10.0 mi NNE 6.9 mph - N/A   Clear
7:15 AM 53.6 °F 42.8 °F 67% 30.08 in 10.0 mi North 6.9 mph - N/A   Clear
7:35 AM 57.2 °F 42.8 °F 59% 30.08 in 10.0 mi North 5.8 mph - N/A   Clear
8:55 AM 68.0 °F 44.6 °F 43% 30.11 in 10.0 mi Calm Calm - N/A   Clear
9:55 AM 73.4 °F 44.6 °F 36% 30.12 in 10.0 mi South 9.2 mph - N/A   Clear
10:15 AM 75.2 °F 44.6 °F 34% 30.13 in 10.0 mi South 9.2 mph - N/A   Clear
10:35 AM 77.0 °F 44.6 °F 32% 30.13 in 10.0 mi South 8.1 mph - N/A   Clear
10:55 AM 80.6 °F 42.8 °F 26% 30.13 in 10.0 mi South 8.1 mph - N/A   Clear
11:15 AM 80.6 °F 42.8 °F 26% 30.12 in 10.0 mi SSE 5.8 mph - N/A   Clear
11:35 AM 82.4 °F 39.2 °F 21% 30.12 in 10.0 mi West 3.5 mph - N/A   Clear
11:55 AM 82.4 °F 37.4 °F 20% 30.12 in 10.0 mi Calm Calm - N/A   Clear
12:15 PM 84.2 °F 37.4 °F 19% 30.12 in 10.0 mi SSW 6.9 mph - N/A   Clear
12:35 PM 87.8 °F 35.6 °F 16% 30.11 in 10.0 mi West 4.6 mph - N/A   Clear
12:55 PM 87.8 °F 33.8 °F 15% 30.11 in 10.0 mi WSW 15.0 mph 19.6 mph N/A   Clear
1:15 PM 89.6 °F 33.8 °F 14% 30.10 in 10.0 mi WNW 10.4 mph 19.6 mph N/A   Clear
1:35 PM 89.6 °F 33.8 °F 14% 30.10 in 10.0 mi South 8.1 mph - N/A   Clear
1:55 PM 89.6 °F 33.8 °F 14% 30.09 in 10.0 mi NNW 3.5 mph 16.1 mph N/A   Clear
2:15 PM 89.6 °F 33.8 °F 14% 30.08 in 10.0 mi South 9.2 mph - N/A   Clear
2:35 PM 91.4 °F 30.2 °F 11% 30.07 in 10.0 mi South 11.5 mph 16.1 mph N/A   Clear
2:55 PM 91.4 °F 30.2 °F 11% 30.07 in 10.0 mi West 10.4 mph 31.1 mph N/A   Clear
3:15 PM 91.4 °F 28.4 °F 10% 30.07 in 10.0 mi SW 8.1 mph - N/A   Clear
3:35 PM 93.2 °F 28.4 °F 10% 30.06 in 10.0 mi WSW 18.4 mph 25.3 mph N/A   Clear
3:55 PM 93.2 °F 30.2 °F 11% 30.05 in 10.0 mi West 19.6 mph 25.3 mph N/A   Clear
4:15 PM 91.4 °F 28.4 °F 10% 30.05 in 10.0 mi SSW 10.4 mph 18.4 mph N/A   Clear
4:35 PM 93.2 °F 28.4 °F 10% 30.04 in 10.0 mi WSW 15.0 mph 24.2 mph N/A   Clear
4:55 PM 91.4 °F 28.4 °F 10% 30.03 in 10.0 mi Calm Calm - N/A   Clear
5:15 PM 93.2 °F 30.2 °F 11% 30.03 in 10.0 mi SE 4.6 mph - N/A   Clear
5:55 PM 93.2 °F 30.2 °F 11% 30.02 in 10.0 mi South 11.5 mph - N/A   Clear
6:15 PM 91.4 °F 28.4 °F 10% 30.02 in 10.0 mi SSW 13.8 mph - N/A   Clear
6:35 PM 91.4 °F 28.4 °F 10% 30.02 in 10.0 mi SSW 10.4 mph - N/A   Clear
6:55 PM 91.4 °F 28.4 °F 10% 30.02 in 10.0 mi SSW 15.0 mph - N/A   Clear
7:15 PM 91.4 °F 28.4 °F 10% 30.02 in 10.0 mi SSW 6.9 mph - N/A   Clear
7:35 PM 89.6 °F 26.6 °F 10% 30.01 in 10.0 mi SSE 10.4 mph - N/A   Clear
7:55 PM 89.6 °F 26.6 °F 10% 30.01 in 10.0 mi SSW 11.5 mph - N/A   Clear
8:15 PM 87.8 °F 26.6 °F 11% 30.01 in 10.0 mi SSW 10.4 mph - N/A   Clear
8:35 PM 84.2 °F 24.8 °F 11% 30.02 in 10.0 mi South 8.1 mph - N/A   Clear
8:55 PM 82.4 °F 23.0 °F 11% 30.02 in 10.0 mi South 8.1 mph - N/A   Clear
9:15 PM 82.4 °F 23.0 °F 11% 30.02 in 10.0 mi South 6.9 mph - N/A   Clear
9:35 PM 78.8 °F 21.2 °F 12% 30.02 in 10.0 mi SSE 5.8 mph - N/A   Clear
9:55 PM 75.2 °F 21.2 °F 13% 30.03 in 10.0 mi ESE 13.8 mph - N/A   Clear
10:15 PM 77.0 °F 44.6 °F 32% 30.03 in 10.0 mi ESE 12.7 mph 19.6 mph N/A   Clear
10:35 PM 75.2 °F 48.2 °F 38% 30.03 in 10.0 mi ESE 13.8 mph 19.6 mph N/A   Clear
10:55 PM 73.4 °F 48.2 °F 41% 30.04 in 10.0 mi ESE 12.7 mph - N/A   Clear
11:15 PM 73.4 °F 48.2 °F 41% 30.04 in 10.0 mi ESE 12.7 mph - N/A   Clear
11:35 PM 73.4 °F 48.2 °F 41% 30.04 in 10.0 mi ESE 11.5 mph - N/A   Clear
11:55 PM 71.6 °F 48.2 °F 43% 30.05 in 10.0 mi ESE 10.4 mph - N/A   Clear